Gustavus, AK

3:57 PM AKDT on June 28, 2017 (GMT -0800)
Gustavus

Weather History for PAGS - January, 2012

Change the Weather History Date:

Wednesday, January 4, 2012

  Actual Average Record
Temperature  
Mean Temperature 36 °F -  
Max Temperature 39 °F 29 °F 46 °F (2003)
Min Temperature 33 °F 16 °F -1 °F (1991)
Degree Days  
Heating Degree Days 29    
Moisture  
Dew Point 31 °F    
Average Humidity 86    
Maximum Humidity 93    
Minimum Humidity 81    
Precipitation  
Precipitation 0.00 in - - ()
Sea Level Pressure  
Sea Level Pressure 29.04 in    
Wind  
Wind Speed 6 mph (SE)    
Max Wind Speed 14 mph    
Max Gust Speed 20 mph    
Visibility 7 miles    
Events      
Averages and records for this station are not official NWS values.
T = Trace of Precipitation, MM = Missing Value Source: NWS Daily Summary

Daily Weather History Graph

Daily Weather History Graph

Search for Another Location

Airport or City:

Trip Planner

Search our weather history database for the weather conditions in past years. The results will help you decide how hot, cold, wet, or windy it might be!

Date:

Astronomy

Jan. 04, 2012 Rise Set
Actual Time 8:50 AM AKST 3:25 PM AKST
Civil Twilight 7:58 AM AKST 4:17 PM AKST
Nautical Twilight 7:05 AM AKST 5:09 PM AKST
Astronomical Twilight 6:17 AM AKST 5:58 PM AKST
Moon 12:00 PM AKST (1/4) 4:35 AM AKST (1/4)
Length of Visible Light 8h 18m
Length of Day
6h 35m
Waxing Gibbous, 81% of the Moon is Illuminated
Jan 4
Waxing Gibbous
Jan 8
Full
Jan 16
Last Quarter
Jan 22
New
Jan 30
First Quarter

Hourly Weather History & Observations

Time (AKST) Temp. Windchill Dew Point Humidity Pressure Visibility Wind Dir Wind Speed Gust Speed Precip Events Conditions
12:16 AM 33.8 °F 28.6 °F 30.2 °F 87% 29.12 in 4.0 mi WNW 5.8 mph - N/A   Overcast
12:36 AM 33.8 °F 30.8 °F 30.2 °F 87% 29.12 in 3.0 mi NW 3.5 mph - N/A   Overcast
12:56 AM 33.8 °F 28.6 °F 30.2 °F 87% 29.11 in 1.2 mi NNW 5.8 mph - N/A   Overcast
1:16 AM 33.8 °F 28.6 °F 30.2 °F 87% 29.10 in 3.0 mi NW 5.8 mph - N/A   Overcast
1:36 AM 33.8 °F 27.0 °F 30.2 °F 87% 29.07 in 5.0 mi NNW 8.1 mph - N/A   Overcast
1:56 AM 33.8 °F 25.8 °F 30.2 °F 87% 29.04 in 0.8 mi NNW 10.4 mph - N/A   Overcast
2:16 AM 33.8 °F 28.6 °F 30.2 °F 87% 29.03 in 0.8 mi NW 5.8 mph - N/A   Overcast
2:36 AM 33.8 °F 30.8 °F 30.2 °F 87% 29.02 in 0.8 mi NW 3.5 mph - N/A   Overcast
2:56 AM 33.8 °F 27.7 °F 30.2 °F 87% 29.00 in 0.8 mi NNW 6.9 mph - N/A   Overcast
3:16 AM 33.8 °F 30.8 °F 30.2 °F 87% 28.98 in 0.8 mi NW 3.5 mph - N/A   Overcast
3:36 AM 33.8 °F - 30.2 °F 87% 28.97 in 1.0 mi Calm Calm - N/A   Overcast
3:56 AM 33.8 °F - 30.2 °F 87% 28.96 in 1.5 mi Calm Calm - N/A   Overcast
4:16 AM 33.8 °F - 30.2 °F 87% 28.95 in 2.5 mi Calm Calm - N/A   Overcast
4:36 AM 33.8 °F - 30.2 °F 87% 28.93 in 1.2 mi Calm Calm - N/A   Overcast
4:56 AM 33.8 °F - 30.2 °F 87% 28.92 in 5.0 mi Calm Calm - N/A   Overcast
5:16 AM 33.8 °F - 30.2 °F 87% 28.90 in 10.0 mi Calm Calm - N/A   Overcast
5:36 AM 33.8 °F - 30.2 °F 87% 28.88 in 10.0 mi Calm Calm - N/A   Overcast
5:56 AM 33.8 °F 24.8 °F 30.2 °F 87% 28.86 in 10.0 mi NNW 12.7 mph - N/A   Overcast
6:16 AM 33.8 °F 27.0 °F 30.2 °F 87% 28.86 in 10.0 mi NNW 8.1 mph - N/A   Overcast
6:36 AM 33.8 °F 30.8 °F 30.2 °F 87% 28.88 in 10.0 mi ESE 3.5 mph - N/A   Overcast
6:56 AM 33.8 °F - 30.2 °F 87% 28.89 in 5.0 mi Calm Calm - N/A   Overcast
7:16 AM 33.8 °F - 30.2 °F 87% 28.91 in 8.0 mi Calm Calm - N/A   Overcast
7:36 AM 33.8 °F - 30.2 °F 87% 28.92 in 9.0 mi Calm Calm - N/A   Overcast
7:56 AM 33.8 °F 30.8 °F 30.2 °F 87% 28.93 in 10.0 mi ENE 3.5 mph - N/A   Overcast
8:16 AM 33.8 °F 29.6 °F 30.2 °F 87% 28.95 in 10.0 mi ESE 4.6 mph - N/A   Overcast
8:36 AM 33.8 °F 27.7 °F 30.2 °F 87% 28.97 in 10.0 mi ESE 6.9 mph - N/A   Overcast
8:56 AM 33.8 °F 27.7 °F 30.2 °F 87% 28.99 in 3.0 mi ESE 6.9 mph - N/A   Overcast
9:16 AM 33.8 °F 25.3 °F 30.2 °F 87% 29.02 in 2.0 mi ESE 11.5 mph - N/A   Overcast
9:36 AM 33.8 °F 25.3 °F 30.2 °F 87% 29.04 in 2.0 mi ESE 11.5 mph - N/A   Overcast
9:56 AM 33.8 °F 24.3 °F 30.2 °F 87% 29.06 in 1.8 mi SE 13.8 mph - N/A   Overcast
10:16 AM 33.8 °F 24.8 °F 30.2 °F 87% 29.07 in 2.5 mi SE 12.7 mph - N/A   Overcast
10:36 AM 33.8 °F 25.3 °F 30.2 °F 87% 29.08 in 5.0 mi SE 11.5 mph - N/A   Overcast
10:56 AM 33.8 °F 26.4 °F 32.0 °F 93% 29.08 in 7.0 mi SE 9.2 mph - N/A   Overcast
11:16 AM 35.6 °F 28.6 °F 32.0 °F 87% 29.08 in 10.0 mi East 9.2 mph - N/A   Overcast
11:36 AM 35.6 °F 32.8 °F 32.0 °F 87% 29.08 in 10.0 mi East 3.5 mph - N/A   Overcast
11:56 AM 33.8 °F - 32.0 °F 93% 29.08 in 10.0 mi Calm Calm - N/A   Overcast
12:16 PM 33.8 °F - 30.2 °F 87% 29.09 in 10.0 mi Calm Calm - N/A   Overcast
12:36 PM 33.8 °F - 32.0 °F 93% 29.09 in 10.0 mi Calm Calm - N/A   Overcast
12:56 PM 35.6 °F 29.9 °F 32.0 °F 87% 29.09 in 10.0 mi SSE 6.9 mph - N/A   Overcast
1:16 PM 37.4 °F 30.8 °F 33.8 °F 87% 29.10 in 10.0 mi SE 9.2 mph - N/A   Overcast
1:36 PM 37.4 °F 30.8 °F 33.8 °F 87% 29.10 in 10.0 mi SE 9.2 mph - N/A   Overcast
1:56 PM 37.4 °F 32.8 °F 33.8 °F 87% 29.10 in 10.0 mi SSE 5.8 mph - N/A   Overcast
2:16 PM 37.4 °F 30.3 °F 33.8 °F 87% 29.10 in 10.0 mi SSE 10.4 mph - N/A   Overcast
2:36 PM 39.2 °F 32.5 °F 33.8 °F 81% 29.11 in 10.0 mi SSE 10.4 mph - N/A   Overcast
2:56 PM 39.2 °F 32.0 °F 33.8 °F 81% 29.11 in 10.0 mi SSE 11.5 mph 19.6 mph N/A   Overcast
3:16 PM 39.2 °F 32.0 °F 33.8 °F 81% 29.12 in 10.0 mi SSE 11.5 mph - N/A   Overcast
3:36 PM 39.2 °F 32.0 °F 33.8 °F 81% 29.13 in 10.0 mi SSE 11.5 mph - N/A   Overcast
3:56 PM 39.2 °F 35.0 °F 33.8 °F 81% 29.14 in 10.0 mi SSE 5.8 mph - N/A   Overcast
4:16 PM 39.2 °F 35.0 °F 33.8 °F 81% 29.14 in 10.0 mi SE 5.8 mph - N/A   Overcast
4:36 PM 39.2 °F 33.6 °F 33.8 °F 81% 29.15 in 10.0 mi SE 8.1 mph - N/A   Overcast
4:56 PM 37.4 °F 31.4 °F 33.8 °F 87% 29.15 in 10.0 mi SE 8.1 mph - N/A   Overcast
5:16 PM 39.2 °F 33.6 °F 33.8 °F 81% 29.15 in 10.0 mi SSE 8.1 mph - N/A   Overcast
5:36 PM 39.2 °F 34.2 °F 33.8 °F 81% 29.15 in 10.0 mi SE 6.9 mph - N/A   Overcast
5:56 PM 37.4 °F 34.9 °F 33.8 °F 87% 29.15 in 10.0 mi SSE 3.5 mph - N/A   Overcast
6:16 PM 39.2 °F 35.9 °F 33.8 °F 81% 29.16 in 10.0 mi South 4.6 mph - N/A   Overcast
6:36 PM 39.2 °F 35.0 °F 35.6 °F 87% 29.16 in 10.0 mi South 5.8 mph - N/A   Overcast
6:56 PM 39.2 °F 33.6 °F 33.8 °F 81% 29.17 in 10.0 mi South 8.1 mph - N/A   Overcast
7:16 PM 39.2 °F 35.0 °F 33.8 °F 81% 29.18 in 10.0 mi South 5.8 mph - N/A   Overcast
7:36 PM 39.2 °F 35.0 °F 33.8 °F 81% 29.19 in 10.0 mi South 5.8 mph - N/A   Overcast
7:56 PM 39.2 °F 35.0 °F 33.8 °F 81% 29.19 in 10.0 mi SE 5.8 mph - N/A   Overcast
8:16 PM 37.4 °F 31.4 °F 33.8 °F 87% 29.19 in 10.0 mi SSE 8.1 mph - N/A   Mostly Cloudy
8:36 PM 39.2 °F 34.2 °F 33.8 °F 81% 29.21 in 10.0 mi South 6.9 mph - N/A   Overcast
8:56 PM 37.4 °F - 33.8 °F 87% 29.22 in 10.0 mi Calm Calm - N/A   Overcast
9:16 PM 37.4 °F - 33.8 °F 87% 29.23 in 10.0 mi Calm Calm - N/A   Overcast
9:36 PM 37.4 °F 34.9 °F 33.8 °F 87% 29.24 in 10.0 mi ESE 3.5 mph - N/A   Overcast
9:56 PM 37.4 °F 34.9 °F 33.8 °F 87% 29.24 in 10.0 mi South 3.5 mph - N/A   Overcast
10:16 PM 39.2 °F 37.0 °F 35.6 °F 87% 29.25 in 10.0 mi SE 3.5 mph - N/A   Overcast
10:36 PM 39.2 °F - 35.6 °F 87% 29.27 in 10.0 mi Calm Calm - N/A   Overcast
10:56 PM 37.4 °F 32.1 °F 33.8 °F 87% 29.27 in 10.0 mi SE 6.9 mph - N/A   Mostly Cloudy
11:16 PM 37.4 °F 31.4 °F 33.8 °F 87% 29.28 in 10.0 mi SE 8.1 mph - N/A   Overcast
11:36 PM 39.2 °F 34.2 °F 33.8 °F 81% 29.28 in 10.0 mi SE 6.9 mph - N/A   Overcast
11:56 PM 39.2 °F 33.6 °F 33.8 °F 81% 29.30 in 10.0 mi SE 8.1 mph - N/A   Overcast